Location: Gwatt
(46.7204°N, 7.6223°E)
Time: 18:23:14
(UTC+00:00)

Transit 2A - Pass Details

Date: 24 January 2021
Orbit: 600 x 958 km, 66.7° (Epoch: 25 February)

Event Time Altitude Azimuth Distance (km) Brightness Sun altitude
Rises 12:52:51 0° 317° (NW) 2,989 8.8 22.3°
Reaches altitude 10° 12:55:30 10° 305° (NW) 2,028 8.1 22.1°
Maximum altitude 12:59:13 25° 249° (WSW) 1,234 7.9 21.9°
Drops below altitude 10° 13:02:48 10° 193° (SSW) 1,942 10.2 21.7°
Sets 13:05:17 0° 180° (S) 2,833 10.2 21.6°
